Find Starlink 4277

NORAD ID: 53009 Int'l Des: 2022-076 Owner: SPXS Country: US Constellation: starlink operational
LEOCIRCULAR

当前视图

正在加载3D地球...

About Starlink 4277

Starlink 4277 (NORAD 53009) is a starlink constellation satellite (v1.5) launched Jul 7, 2022 by SPXS of US. It operates in LEO, CIRCULAR orbit with a mass of 297.00 kg.

关于 Starlink 4277

正在加载描述...

即将过境

Passes for default location (London). Set your location on the main map for personalized predictions.

高度历史

Loading altitude history...

两行轨道根数

1 53009U 22076Z 26195.15733781 .00000358 00000-0 40569-4 0 9996
2 53009 53.1585 236.1247 0001187 85.9853 274.1274 15.08821930222073
Epoch: Jul 14, 2026 • Age: 14 hours

当前状态

高度 546.5 km
远地点 / 近地点 N/A
速度 7.59 km/s
星下点 -22.29°S, 122.42°W
发射日期 Jul 7, 2022
运行时间 4 years
类型 internet

技术详情

分类 Payload
质量 297.00 kg
干质量 275.00 kg
总质量 297.00 kg
长度 0.20 m
直径 2.80 m
跨度 9.00 m
形状 Box + pan
制造商 SPXS
平台类型 Starlink
阶段状态 In Orbit
所有者/国家 SPXS/US

Most Searched